Regional Weather Roundup
Issued by NWS

Home | Current Version | Previous Version | Graphics & Text | Print | Product List | Glossary On
Versions: 1 2 3 4 5 6 7 8 9 10 11 12 13 14 15 16 17 18 19 20 21 22 23 24 25 26 27 28 29 30 31 32 33 34 35 36 37 38 39 40 41 42 43 44 45 46 47 48 49 50
000
ASUS45 KPSR 251600
RWRAZ

ARIZONA HOURLY REGIONAL WEATHER ROUNDUP
NATIONAL WEATHER SERVICE PHOENIX AZ
900 AM MST MON MAY 25 2015

NOTE: FAIR INDICATES FEW OR NO CLOUDS BELOW 12,000 FEET WITH NO
SIGNIFICANT WEATHER AND/OR OBSTRUCTIONS TO VISIBILITY.

AZZ001>003-036-251700-
NORTHWEST ARIZONA

CITY           SKY/WX    TMP DP  RH WIND       PRES   REMARKS
KINGMAN        SUNNY     71  41  33 SW12      29.99R
$$

AZZ004>008-015-016-018-251700-
NORTH CENTRAL ARIZONA

CITY           SKY/WX    TMP DP  RH WIND       PRES   REMARKS
GRAND CANYON   CLOUDY    48  44  86 SW3       30.11R
WILLIAMS       CLOUDY    54  41  62 W8G15     30.18R
PRESCOTT       CLOUDY    61  38  42 VRB7      30.06R
FLAGSTAFF      NOT AVBL
PAYSON         PTSUNNY   63  37  39 VRB5      30.09R
PAGE           PTSUNNY   61  48  62 E3        29.99R
$$

AZZ009>014-017-251700-
NORTHEAST ARIZONA

CITY           SKY/WX    TMP DP  RH WIND       PRES   REMARKS
WINSLOW        NOT AVBL
SAINT JOHNS    CLOUDY    58  40  51 W16       30.06R
WINDOW ROCK    CLOUDY    55  40  56 SW12      30.07R
$$

AZZ023-251700-
GREATER PHOENIX AREA

CITY           SKY/WX    TMP DP  RH WIND       PRES   REMARKS
PHOENIX        MOSUNNY   76  44  32 CALM      29.92R
DEER VALLEY    SUNNY     74  44  34 SW5       29.93R
SCOTTSDALE     SUNNY     75  42  30 CALM      29.95R
MESA-FALCON    MOSUNNY   73  41  31 E6        29.94R
MESA-GATEWAY   MOSUNNY   72  46  40 CALM      29.96R
CHANDLER       SUNNY     75  46  35 VRB5      29.94R
$$

AZZ027-028-251700-
SOUTHWEST MARICOPA COUNTY AND PINAL COUNTY

CITY           SKY/WX    TMP DP  RH WIND       PRES   REMARKS
CASA GRANDE    SUNNY     73  46  38 CALM      29.94R
$$

AZZ503-504-507>509-251700-
SOUTHEAST ARIZONA

CITY           SKY/WX    TMP DP  RH WIND       PRES   REMARKS
TUCSON         SUNNY     71  41  33 CALM      30.01S
RYAN FIELD       N/A     73  45  35 CALM      30.00S
NOGALES        SUNNY     69  38  32 VRB3      30.04S
SAFFORD        SUNNY     69  34  27 VRB5      29.99R
$$

AZZ020-021-025-026-031-251700-
SOUTHWEST ARIZONA

CITY           SKY/WX    TMP DP  RH WIND       PRES   REMARKS
YUMA           NOT AVBL
$$

CAZ031-033-041-043-047-048-061-251700-
SOUTHERN CALIFORNIA

CITY           SKY/WX    TMP DP  RH WIND       PRES   REMARKS
DOWNTOWN L.A.  CLOUDY    61  53  75 CALM      29.99R
L.A. AIRPORT   CLOUDY    60  54  80 SE3       30.00R
SAN DIEGO      DRIZZLE   62  55  77 W8        30.02R
BURBANK        CLOUDY    60  51  72 SE7       29.99S
ONTARIO        CLOUDY    58  52  80 CALM      29.99S HAZE
RIVERSIDE      CLOUDY    59  53  80 CALM      30.00S
PALM SPRINGS   SUNNY     75  50  41 VRB3      29.89S
EL CENTRO NAS  SUNNY     76  53  44 E3        29.89R
IMPERIAL       SUNNY     75  56  51 E3        29.87R
BLYTHE         SUNNY     78  52  40 S12       29.88R
$$

NVZ020-UTZ003-251700-
SOUTHERN NEVADA-UTAH

CITY           SKY/WX    TMP DP  RH WIND       PRES   REMARKS
LAS VEGAS      NOT AVBL
SALT LAKE CITY MOSUNNY   57  48  72 SE6       29.97S
$$

NMZ009-TXZ055-251700-
NEW MEXICO-WEST TEXAS

CITY           SKY/WX    TMP DP  RH WIND       PRES   REMARKS
ALBUQUERQUE    MOSUNNY   57  42  57 CALM      30.01F
EL PASO        SUNNY     71  33  24 SW14      29.99R
$$


........................KEY........................
SKY/WX - SKY CONDITION/WEATHER
TMP    - TEMPERATURE IN FAHRENHEIT
DP     - DEW POINT IN FAHRENHEIT
RH     - RELATIVE HUMIDITY IN PERCENT
WIND   - DIRECTION AND SPEED IN MILES PER HOUR (MPH)
VRB    - VARIABLE WIND DIRECTION
PRES   - MEAN SEA LEVEL PRESSURE IN INCHES OF MERCURY
         F - FALLING PRESSURE   R - RISING PRESSURE
         S - STEADY PRESSURE
VSB    - VISIBILITY IN MILES
HX     - HEAT INDEX IN FAHRENHEIT
WCI    - WIND CHILL INDEX IN FAHRENHEIT
TC     - TEMPERATURE IN CELSIUS WHICH IS ALSO KNOWN AS
         TEMPERATURE IN CENTIGRADE
AFB    - AIR FORCE BASE
         LUKE AFB IS LUKE AIR FORCE BASE
         DAVIS-MONTHAN IS DAVIS-MONTHAN AIR FORCE BASE
NAS    - NAVAL AIR STATION
         EL CENTRO NAS IS EL CENTRO NAVAL AIR STATION
N/A    - NOT AVAILABLE



USA.gov is the U.S. government's official web portal to all federal, state and local government web resources and services.